GEFSSE_con_probscp_036.txt.gz
Probability
0 0 0 0 0 0 0 0 0 0 0 0 0 0 0 0 0 0 0 0 0 0 0 0 0 0 0 0 0 0 0 0 0 0 0 0 0 0 0 0 0 0 0
0 0 0 0 0 0 0 0 0 0 0 0 0 0 0 0 0 0 0 0 0 0 0 0 0 0 0 0 0 0 0 0 0 0 0 0 0 0 0 0 0 0 0
0 0 0 0 0 0 0 0 0 0 0 0 0 0 0 0 0 0 0 0 0 0 0 0 0 0 0 0 0 0 0 0 0 0 0 0 0 0 0 0 0 0 0
0 0 0 0 0 0 0 0 0 0 0 0 0 0 0 0 0 0 0 0 0 0 0 0 0 0 0 0 0 0 0 0 0 0 0 0 0 0 0 0 0 0 0
0 0 0 0 0 0 0 0 0 0 0 0 0 0 0 0 0 0 0 0 0 0 0 0 0 0 0 0 0 0 0 0 0 0 0 0 0 0 0 0 0 0 0
0 0 0 0 0 0 0 0 0 0 0 0 0 0 0 0 0 0 0 0 0 0 0 0 0 0 0 0 0 0 0 0 0 0 0 0 0 0 0 0 0 0 0
0 0 0 0 0 0 0 0 0 0 0 0 0 0 0 0 0 0 0 0 0 0 0 0 0 0 0 0 0 0 0 0 0 0 0 0 0 0 0 0 0 0 0
0 0 0 0 0 0 0 0 0 0 0 0 0 0 0 0 0 0 0 0 0 0 0 0 0 0 0 0 0 0 0 0 0 0 0 0 0 0 0 0 0 0 0
0 0 0 0 0 0 0 0 0 0 0 0 0 0 0 0 0 0 0 0 0 0 0 0 0 0 0 0 0 0 0 0 0 0 0 0 0 0 0 0 0 0 0
0 0 0 0 0 0 0 0 0 0 0 0 0 0 0 0 0 0 0 0 0 0 0 0 0 0 0 0 0 0 0 0 0 0 0 0 0 0 0 0 0 0 0
0 0 0 0 0 0 0 0 0 0 0 0 0 0 0 0 0 0 0 0 0 0 0 0 0 0 0 0 0 0 0 0 0 0 0 0 0 0 0 0 0 0 0
0 0 0 0 0 0 0 0 0 0 0 0 0 0 0 0 0 0 0 0 0 0 0 0 0 0 0 0 0 0 0 0 0 0 0 1 1 0 0 0 0 0 0
0 0 0 0 0 0 0 0 0 0 0 0 0 0 0 0 0 0 0 0 0 0 0 0 0 0 0 0 0 0 0 0 0 0 1 2 2 1 0 0 0 1 1
0 0 0 0 0 0 0 0 0 0 0 0 0 0 0 0 0 0 0 0 0 0 0 0 0 0 0 0 0 0 0 0 0 0 2 4 3 1 0 0 0 1 1
0 0 0 0 0 0 0 0 0 0 0 0 0 0 0 0 1 1 0 0 0 0 0 0 0 0 0 0 0 0 0 0 0 0 2 5 6 3 0 0 0 0 1
0 0 1 1 1 1 1 0 0 0 0 0 1 2 2 3 4 3 2 1 1 1 1 0 0 0 0 0 0 0 0 0 0 0 1 5 8 6 3 1 0 1 2
3 4 5 4 5 7 8 6 3 0 1 4 7 10 12 12 15 16 11 6 5 6 5 3 1 1 1 0 0 0 1 1 1 1 2 4 7 8 7 6 3 3 5
16 20 21 17 17 22 25 21 15 12 15 20 26 33 36 34 37 40 32 21 19 19 15 9 5 5 4 2 1 1 2 4 4 4 4 5 7 8 10 11 9 7 6
44 48 49 46 46 49 51 47 41 40 42 45 55 63 65 63 62 62 54 42 38 38 33 22 16 15 12 8 4 2 3 7 9 8 7 8 10 11 10 13 13 9 7
72 73 75 77 78 78 77 73 70 68 66 67 75 83 85 83 79 74 66 58 55 56 49 38 29 25 21 18 11 5 4 8 12 14 13 11 12 11 10 11 12 12 12
84 85 89 92 93 93 93 91 87 83 80 80 83 88 91 90 86 79 72 67 66 66 61 51 43 34 30 29 24 13 6 7 12 17 18 15 10 8 8 10 14 19 22
87 89 92 94 94 95 96 94 91 89 87 84 86 89 91 90 86 81 76 73 71 71 66 60 51 42 35 34 32 22 9 5 8 12 16 16 13 9 7 7 13 21 26
89 90 91 92 92 92 92 90 88 87 85 83 85 88 88 84 82 80 77 73 71 69 64 57 48 40 36 35 32 26 17 12 10 10 12 16 19 15 7 6 9 15 20
87 88 90 92 90 89 87 86 84 83 81 81 84 87 85 80 78 76 72 67 62 59 56 48 41 37 36 34 30 28 27 26 22 15 10 14 18 15 10 7 8 12 17
76 80 88 93 91 88 86 84 82 82 81 82 85 86 83 80 77 72 63 56 52 50 49 46 41 38 36 33 30 28 29 31 29 20 11 10 11 9 8 8 9 14 18
64 72 84 93 94 89 86 83 82 82 83 85 88 87 83 81 79 70 58 52 50 48 47 45 40 35 35 34 31 27 25 26 25 21 12 7 6 5 5 7 10 14 16

GEFSSE_con_probscp_042.txt.gz
Probability
0 0 0 0 0 0 0 0 0 0 0 0 0 0 0 0 0 0 0 0 0 0 0 0 0 0 0 0 0 0 0 0 0 0 0 0 0 0 0 0 0 0 0
0 0 0 0 0 0 0 0 0 0 0 0 0 0 0 0 0 0 0 0 0 0 0 0 0 0 0 0 0 0 0 0 0 0 0 0 0 0 0 0 0 0 0
0 0 0 0 0 0 0 0 0 0 0 0 0 0 0 0 0 0 0 0 0 0 0 0 0 0 0 0 0 0 0 0 0 0 0 0 0 0 0 0 0 0 0
0 0 0 0 0 0 0 0 0 0 0 0 0 0 0 0 0 0 0 0 0 0 0 0 0 0 0 0 0 0 0 0 0 0 0 0 0 0 0 0 0 0 0
0 0 0 0 0 0 0 0 0 0 0 0 0 0 0 0 0 0 0 0 0 0 0 0 0 0 0 0 0 0 0 0 0 0 0 0 0 0 0 0 0 0 0
0 0 0 0 0 0 0 0 0 0 0 0 0 0 0 0 0 0 0 0 0 0 0 0 0 0 0 0 0 0 0 0 0 0 0 0 0 0 0 0 0 0 0
0 0 0 0 0 0 0 0 0 0 0 0 0 0 0 0 0 0 0 0 0 0 0 0 0 0 0 0 0 0 0 0 0 0 0 0 1 2 1 0 0 0 0
4 3 1 0 0 0 0 0 0 0 0 0 0 0 0 0 0 0 0 0 0 0 0 0 0 0 0 0 0 0 0 0 0 0 0 1 7 12 10 3 0 0 0
15 12 5 0 1 1 0 0 0 0 0 0 0 0 0 0 0 0 0 0 0 0 0 0 0 0 0 0 0 0 0 0 0 0 0 5 22 34 24 7 1 0 0
25 21 10 1 1 1 0 0 0 0 0 0 0 0 0 0 0 0 0 0 0 0 0 0 0 0 0 0 0 0 0 0 0 0 1 14 41 53 34 10 1 0 0
25 26 18 7 3 1 0 0 0 0 0 0 0 0 0 0 0 0 5 12 15 10 4 1 1 1 0 0 1 1 0 0 0 0 7 30 58 60 36 12 2 0 0
24 29 30 22 11 3 1 2 1 1 2 1 2 5 4 2 1 3 16 36 42 29 11 3 2 1 1 1 3 4 2 0 0 0 15 49 71 61 35 15 4 1 0
30 34 42 46 33 14 8 9 6 5 9 7 9 16 14 6 2 8 29 51 59 45 23 12 10 9 6 5 6 7 4 2 0 2 23 59 73 58 36 19 10 4 2
50 50 60 71 63 41 32 31 22 16 22 26 31 37 33 23 15 21 43 62 64 55 45 36 33 29 22 15 9 8 6 5 4 7 31 63 73 62 49 36 25 16 10
75 74 81 89 86 74 68 64 52 44 46 54 62 65 60 55 48 49 66 79 73 66 67 66 59 56 49 33 19 13 13 13 12 19 43 71 81 77 71 61 48 35 26
87 88 93 98 97 94 91 88 81 73 71 74 81 86 86 84 81 81 87 92 87 79 80 82 78 77 71 55 38 29 29 28 26 34 55 78 89 90 86 77 65 53 45
91 93 96 99 99 99 98 95 91 84 80 82 88 93 96 97 96 97 97 97 95 91 89 90 88 86 81 69 57 47 42 41 40 48 65 81 87 89 88 82 72 64 60
96 98 99 98 99 100 99 98 93 87 84 88 94 97 99 100 100 100 99 98 98 97 96 95 93 90 84 76 66 55 48 46 46 51 63 76 81 83 85 84 79 73 68
99 100 100 99 100 100 100 99 97 95 93 94 97 100 100 100 100 100 99 98 98 97 96 94 93 91 86 78 67 55 46 43 41 43 50 61 68 75 79 81 81 75 67
100 100 100 100 100 100 100 100 100 99 98 98 98 100 100 100 100 100 100 99 97 96 95 94 91 89 85 78 67 53 40 33 30 32 39 45 51 61 68 74 77 71 65
99 100 100 100 100 100 100 100 100 100 99 99 99 100 100 100 100 100 100 100 99 98 96 95 91 86 81 74 64 51 37 27 23 28 39 47 46 51 58 63 67 68 65
98 99 99 100 100 100 100 100 100 100 100 100 100 100 100 100 100 99 99 99 99 99 97 95 91 83 73 65 58 47 36 28 23 27 43 55 56 58 58 53 53 58 60
89 92 95 98 99 99 99 100 100 100 100 100 100 100 100 99 99 98 97 97 97 97 96 94 89 78 66 60 52 38 28 24 20 24 36 49 59 65 59 45 36 38 42
67 74 84 92 97 98 99 99 99 100 100 100 100 99 99 99 98 98 96 96 96 95 94 92 86 76 65 57 47 33 24 19 13 14 19 28 42 52 48 34 24 23 26
39 47 63 79 91 96 98 98 98 98 98 99 99 99 98 99 99 98 97 96 95 94 93 90 84 76 66 54 42 33 26 19 12 8 6 10 20 28 29 24 18 15 15
23 30 45 66 85 94 96 96 95 95 96 97 97 97 97 98 99 99 97 96 94 93 91 89 83 75 65 53 41 33 27 19 14 9 3 2 8 14 18 19 16 11 9

GEFSSE_con_probscp_048.txt.gz
Probability
0 1 2 2 1 0 0 0 0 0 0 0 0 0 0 0 0 0 0 0 0 0 0 0 0 0 0 0 0 0 0 0 0 0 0 0 0 0 0 0 0 0 0
0 0 1 1 0 0 0 0 0 0 0 0 0 0 0 0 0 0 0 0 0 0 0 0 0 0 0 0 0 0 0 0 0 0 0 0 0 0 0 0 0 0 0
0 0 0 0 0 0 0 0 0 0 0 0 0 0 0 0 0 0 0 0 0 0 0 0 0 0 0 0 0 0 0 0 0 0 0 0 0 0 0 0 0 0 0
0 0 0 0 0 0 0 0 0 0 0 0 0 0 0 0 0 0 0 0 0 0 0 0 0 0 0 0 0 0 0 0 0 0 0 0 0 0 0 0 0 0 0
0 0 0 0 0 0 0 0 0 0 0 0 0 0 0 0 0 0 0 0 0 0 0 0 0 0 0 0 0 0 0 0 0 0 0 0 0 0 0 0 0 0 0
0 0 1 2 1 0 0 0 0 0 0 0 0 0 0 0 0 0 0 0 0 0 0 0 0 0 0 0 0 0 0 0 0 0 0 0 0 0 0 0 0 0 0
0 0 2 6 6 4 2 2 2 1 0 0 0 0 0 0 0 0 0 0 0 0 0 0 0 0 0 0 0 0 0 0 0 0 0 0 0 0 0 0 0 0 0
0 1 4 8 10 9 7 4 3 2 1 0 0 0 0 0 0 0 0 0 0 0 0 0 0 0 0 0 0 0 0 0 0 0 0 0 0 0 0 0 0 0 0
1 2 3 6 10 12 10 6 4 3 2 1 0 0 0 0 0 0 0 0 0 0 0 0 0 0 0 0 0 0 0 0 0 0 0 0 0 1 1 1 2 2 1
1 2 2 3 6 7 7 6 5 5 3 1 0 0 0 0 0 0 0 0 0 0 0 0 0 0 0 0 0 0 0 0 0 0 0 0 1 2 5 8 11 11 8
1 2 3 4 3 3 4 5 7 7 4 1 0 0 0 0 0 0 0 0 0 0 0 0 1 1 0 0 0 0 0 0 0 1 0 0 1 4 10 20 28 27 22
2 3 5 6 5 3 3 5 7 7 4 2 1 0 0 0 0 0 0 0 1 1 0 1 3 3 1 0 0 0 0 0 0 0 1 2 4 8 19 34 43 41 37
8 7 7 8 7 5 4 4 7 7 5 4 2 2 2 1 0 0 0 0 1 2 2 4 6 5 2 1 0 0 0 0 1 1 1 4 10 19 34 51 57 51 46
25 21 15 12 9 5 3 5 7 8 8 7 5 5 5 5 2 1 0 1 5 11 15 14 11 6 2 1 1 1 1 3 6 5 4 8 21 37 54 67 70 62 54
52 45 34 27 19 12 10 10 11 11 10 11 11 12 15 16 12 5 2 7 18 30 36 31 21 12 6 4 4 5 7 9 13 13 8 13 31 51 67 76 76 69 64
73 69 60 52 44 37 34 34 33 28 25 26 28 30 35 40 35 24 19 26 39 49 52 46 35 25 20 15 12 14 16 17 19 17 12 16 32 51 67 74 75 73 71
82 83 82 78 74 70 68 69 68 62 56 55 55 56 61 67 65 56 50 53 59 63 62 57 48 42 37 30 25 24 24 22 19 15 12 15 25 40 53 61 64 68 70
85 90 94 93 92 90 90 91 90 86 81 77 73 72 75 81 84 81 78 76 76 76 75 70 63 56 49 42 35 30 26 21 17 13 10 12 18 25 34 40 48 56 59
87 90 92 93 94 94 93 93 92 89 85 80 73 69 72 79 86 91 91 89 87 86 84 80 74 65 58 50 41 33 23 16 13 9 7 9 11 14 18 23 33 41 43
81 82 83 85 88 90 90 90 89 87 83 79 72 65 65 73 83 90 93 94 92 89 87 83 75 67 61 53 43 30 16 9 6 4 4 5 6 7 9 13 21 25 24
67 69 73 76 79 82 85 86 87 87 85 83 80 73 68 73 81 85 90 93 92 89 86 82 74 65 57 48 36 19 7 3 1 1 1 2 3 4 5 7 11 12 12
53 55 61 66 68 71 75 78 81 82 83 86 86 82 78 78 79 81 85 89 90 89 86 82 75 64 52 41 28 13 3 0 0 0 0 0 2 3 4 5 6 7 7
41 42 47 51 53 54 59 64 67 71 75 80 82 81 80 79 77 76 80 84 86 86 84 80 74 64 50 36 25 15 5 0 0 0 0 0 1 2 3 3 3 3 3
37 36 36 36 37 39 42 47 51 57 63 68 70 71 73 74 73 73 75 77 79 80 79 77 73 64 51 37 26 17 7 2 1 1 0 0 0 1 1 1 1 0 1
37 35 32 29 30 30 30 32 36 40 45 48 50 52 55 59 62 63 66 67 69 71 72 73 69 60 50 39 28 18 10 4 3 2 1 0 0 0 0 0 0 0 0
34 33 31 30 30 27 23 23 26 28 30 31 33 35 39 43 48 53 56 59 62 64 66 68 63 55 46 37 27 18 10 6 4 2 1 0 0 0 0 0 0 0 0

GEFSSE_con_probscp_054.txt.gz
Probability
0 0 0 0 0 0 0 0 1 1 1 0 0 0 0 0 0 0 0 0 0 0 0 0 0 0 0 0 0 0 0 0 0 0 0 0 0 0 0 0 0 0 0
0 0 0 0 0 0 0 0 0 0 0 0 0 0 0 0 0 0 0 0 0 0 0 0 0 0 0 0 0 0 0 0 0 0 0 0 0 0 0 0 0 0 0
0 0 0 0 0 0 0 0 0 0 0 0 0 0 0 0 0 0 0 0 0 0 0 0 0 0 0 0 0 0 0 0 0 0 0 0 0 0 0 0 0 0 0
0 0 0 0 0 0 0 0 0 0 0 0 0 0 0 0 0 0 0 0 0 0 0 0 0 0 0 0 0 0 0 0 0 0 0 0 0 0 0 0 0 0 0
0 0 0 0 0 0 0 0 0 0 0 0 0 0 0 0 0 0 0 0 0 0 0 0 0 0 0 0 0 0 0 0 0 0 0 0 0 0 0 0 0 0 0
0 0 0 0 1 1 1 2 1 0 0 0 0 0 0 0 0 0 0 0 0 0 0 0 0 0 0 0 0 0 0 0 0 0 0 0 0 0 0 0 0 0 0
0 0 0 1 2 3 3 3 2 1 0 0 0 0 0 0 0 0 0 0 0 0 0 0 0 0 0 0 0 0 0 0 0 0 0 0 0 0 0 0 0 0 0
0 0 0 1 3 5 5 4 2 1 0 0 0 0 0 0 0 0 0 0 0 0 0 0 0 0 0 0 0 0 0 0 0 0 0 0 0 0 0 0 0 0 0
0 0 0 0 2 5 6 5 3 1 0 0 0 0 0 0 0 0 0 0 0 0 0 0 0 0 0 0 0 0 0 0 0 0 0 0 0 0 0 0 0 0 0
0 0 0 0 2 4 6 7 6 3 2 1 0 0 0 0 0 0 0 0 0 0 0 0 0 0 0 0 0 0 0 0 0 0 0 0 0 0 0 0 0 0 0
0 0 1 2 5 6 6 8 10 9 6 3 1 0 0 0 0 0 0 0 0 0 0 0 0 0 0 0 0 0 0 0 0 0 0 0 0 0 0 0 0 0 0
0 0 2 6 9 9 8 8 12 13 11 7 4 2 1 1 0 0 0 0 0 0 0 0 0 0 0 0 0 0 0 0 0 0 0 0 0 0 0 0 0 0 0
0 0 2 7 11 13 11 11 16 20 18 15 12 9 7 5 3 2 1 1 0 1 1 1 0 0 1 1 1 0 0 0 0 0 0 0 0 0 0 1 0 0 0
1 0 2 8 14 17 17 17 22 27 27 25 22 21 21 17 11 7 6 4 2 2 2 2 1 1 3 4 4 2 0 0 0 0 0 0 1 1 2 2 1 0 0
4 3 4 12 21 25 23 22 24 28 30 29 28 32 37 34 24 17 13 9 6 6 7 8 7 6 6 7 6 3 1 1 0 0 0 1 2 3 4 4 3 2 2
11 10 9 16 27 32 28 23 22 24 24 25 26 32 40 44 39 31 26 22 19 19 21 20 18 15 14 12 9 6 4 4 3 2 3 5 5 5 5 5 7 8 8
24 22 19 22 29 33 29 23 20 18 18 20 23 27 35 44 48 49 48 44 41 41 41 38 35 35 32 26 20 15 11 9 9 8 10 12 9 6 5 7 10 13 13
38 37 34 33 34 33 31 29 26 23 25 28 31 34 38 46 55 64 68 65 63 64 63 59 58 58 54 46 35 26 19 17 17 17 19 20 14 7 5 6 9 13 13
44 46 45 43 41 40 41 43 42 42 45 49 50 48 49 55 63 73 77 76 74 77 78 76 74 72 66 57 44 30 24 25 26 23 23 23 18 10 4 3 5 9 11
43 46 46 45 46 48 51 52 52 54 57 59 58 54 53 57 64 70 75 76 78 81 82 80 78 73 66 57 42 28 23 25 27 24 21 21 18 11 5 4 4 7 9
34 38 41 42 43 46 49 50 51 52 50 49 50 49 47 48 52 56 62 70 76 80 79 77 75 71 64 53 41 29 20 16 17 18 16 14 12 9 6 5 7 9 11
21 26 31 34 35 36 38 40 41 40 37 34 34 35 35 35 38 43 49 58 66 70 71 69 69 67 60 50 42 33 21 11 7 8 9 6 4 5 5 4 6 9 12
12 15 20 23 25 25 26 28 28 26 24 21 19 19 20 22 26 31 36 42 50 55 58 59 59 60 56 47 40 34 26 15 6 3 3 2 1 2 4 3 3 6 9
7 9 12 15 16 17 19 20 19 16 13 9 7 7 8 10 13 17 21 25 32 37 41 43 47 49 49 44 37 31 27 19 9 3 1 0 0 2 2 2 2 4 6
6 8 10 12 12 13 15 15 13 9 7 4 2 1 2 2 3 5 8 11 16 20 24 29 33 35 38 38 35 30 26 21 13 6 2 1 0 1 1 0 1 3 4
6 8 10 12 12 13 13 12 9 7 5 3 1 0 0 0 0 1 2 3 6 10 15 21 24 26 30 32 32 30 27 23 17 9 4 2 1 0 0 0 1 2 3

GEFSSE_con_probscp_060.txt.gz
Probability
0 0 0 0 0 0 0 0 0 0 0 0 0 0 0 0 0 0 0 0 0 0 0 0 0 0 0 0 0 0 0 0 0 0 0 0 0 0 0 0 0 0 0
0 0 0 0 0 0 0 0 0 0 0 0 0 0 0 0 0 0 0 0 0 0 0 0 0 0 0 0 0 0 0 0 0 0 0 0 0 0 0 0 0 0 0
0 0 0 0 0 0 0 0 0 0 0 0 0 0 0 0 0 0 0 0 0 0 0 0 0 0 0 0 0 0 0 0 0 0 0 0 0 0 0 0 0 0 0
0 0 0 0 0 0 0 0 0 0 0 0 0 0 0 0 0 0 0 0 0 0 0 0 0 0 0 0 0 0 0 0 0 0 0 0 0 0 0 0 0 0 0
0 0 0 0 0 0 0 0 0 0 0 0 0 0 0 0 0 0 0 0 0 0 0 0 0 0 0 0 0 0 0 0 0 0 0 0 0 0 0 0 0 0 0
0 0 0 0 0 0 0 0 0 0 0 0 0 0 0 0 0 0 0 0 0 0 0 0 0 0 0 0 0 0 0 0 0 0 0 0 0 0 0 0 0 0 0
0 0 0 0 0 0 0 0 0 0 0 0 0 0 0 0 0 0 0 0 0 0 0 0 0 0 0 0 0 0 0 0 0 0 0 0 0 0 0 0 0 0 0
0 0 0 0 0 0 0 0 0 0 0 0 0 0 0 0 0 0 0 0 0 0 0 0 0 0 0 0 0 0 0 0 0 0 0 0 0 0 0 0 0 0 0
0 0 0 0 0 0 0 1 1 1 1 1 1 1 1 0 0 1 1 0 0 0 0 0 0 0 0 0 0 0 0 0 0 0 0 1 2 1 0 0 0 0 0
0 0 0 0 0 0 1 2 4 4 5 4 3 2 1 0 1 3 3 1 1 0 0 0 0 0 0 0 0 0 0 0 0 0 0 2 4 3 1 0 0 0 1
0 0 0 0 0 0 1 3 5 7 8 7 5 5 4 2 3 5 6 8 6 2 1 1 0 0 0 0 2 2 1 0 0 0 3 9 11 6 2 0 0 1 2
1 1 0 1 1 2 2 3 4 7 11 9 7 9 9 5 4 6 12 17 13 6 4 3 2 0 0 1 4 5 2 1 1 1 10 24 23 10 2 1 1 2 4
2 2 2 3 4 5 6 6 6 10 15 15 13 15 16 14 11 12 17 22 21 15 13 12 8 3 0 0 2 3 2 2 3 5 18 35 31 13 3 1 1 3 4
3 3 4 7 9 11 12 12 12 15 18 18 19 21 22 23 21 21 26 28 27 27 25 22 18 11 6 4 2 2 2 3 5 10 24 36 32 16 5 1 2 3 4
4 4 7 12 16 21 25 22 18 19 19 20 21 24 27 29 28 29 36 38 35 36 39 35 28 25 22 16 9 6 6 8 11 16 25 34 32 21 9 3 3 5 6
6 8 13 19 27 35 40 34 24 22 24 24 24 25 29 32 31 34 39 43 44 47 54 51 43 42 42 33 22 18 20 22 24 25 27 33 35 27 17 11 9 9 8
13 18 25 28 35 46 51 44 31 25 26 29 30 32 34 33 34 38 42 46 52 56 64 66 60 59 60 53 45 42 44 43 39 35 35 39 40 34 29 26 24 19 15
25 30 32 31 35 45 51 46 37 29 28 32 35 35 35 33 35 41 48 52 57 61 67 72 73 74 76 73 69 66 65 61 52 44 44 49 50 45 44 46 44 36 27
36 36 33 29 33 41 45 43 37 33 31 31 32 31 31 30 33 41 46 49 56 62 67 73 80 84 86 83 78 73 71 68 61 51 48 51 55 53 51 55 56 48 37
42 39 34 33 36 40 40 37 34 32 30 27 26 24 23 24 29 35 36 39 49 58 63 68 75 81 84 82 75 69 67 65 60 54 49 49 50 49 49 52 57 54 47
45 42 38 37 39 38 35 32 31 29 26 22 20 17 15 18 22 26 28 32 41 48 52 57 65 71 75 77 74 68 62 58 54 50 48 46 43 43 44 46 53 57 58
49 44 39 37 36 35 32 28 27 26 23 19 17 15 11 11 15 18 23 27 33 38 40 47 57 64 69 73 74 69 61 56 53 48 44 42 40 40 39 38 44 53 57
48 43 37 34 34 34 32 28 25 23 20 16 15 14 11 9 10 14 18 22 26 28 31 38 49 59 63 65 68 69 64 60 56 51 44 40 40 39 35 31 33 40 45
42 39 35 35 36 35 34 32 29 23 17 14 13 13 11 9 8 10 12 15 17 18 21 27 37 47 52 52 57 62 62 59 56 52 46 42 40 37 33 29 29 33 36
34 33 35 40 44 42 41 42 39 29 19 16 16 15 12 8 5 4 5 6 8 10 12 16 24 31 37 41 45 50 52 52 51 50 46 44 42 40 35 33 33 33 34
29 30 37 47 53 52 50 53 49 36 25 22 20 17 13 8 4 1 1 2 4 5 6 10 15 21 27 34 39 43 46 48 49 49 47 45 47 45 40 38 36 35 34

GEFSSE_con_probscp_066.txt.gz
Probability
0 0 0 0 0 1 1 1 2 2 1 0 0 0 0 0 0 0 0 0 0 0 0 0 0 0 0 0 0 0 0 0 0 0 0 0 0 0 0 0 0 0 0
0 0 0 0 0 0 0 0 1 1 0 0 0 0 0 0 0 0 0 0 0 0 0 0 0 0 0 0 0 0 0 0 0 0 0 0 0 0 0 0 0 0 0
0 0 0 0 0 0 0 0 0 0 1 1 1 0 0 0 0 0 0 0 0 0 0 0 0 0 0 0 0 0 0 0 0 0 0 0 0 0 0 0 0 0 0
0 0 0 0 0 0 0 1 1 2 2 2 1 0 0 0 0 0 0 0 0 0 0 0 0 0 0 0 0 0 0 0 0 0 0 0 0 0 0 0 0 0 0
0 0 0 0 0 0 1 2 3 3 3 3 2 1 1 0 0 0 0 0 0 0 0 0 0 0 0 0 0 0 0 0 0 0 0 0 0 0 0 0 0 0 0
1 0 0 0 0 0 1 2 3 3 3 3 3 3 2 1 1 1 0 0 0 0 0 0 0 0 0 0 0 0 0 0 0 0 0 0 1 2 1 0 0 0 0
5 2 0 0 0 1 1 2 3 3 3 3 3 3 3 3 2 2 1 1 1 1 1 0 0 0 0 0 0 0 0 0 0 0 0 1 4 6 4 1 0 0 0
11 6 2 1 1 2 2 3 3 3 3 3 3 3 3 3 3 3 3 2 3 3 3 2 1 1 1 1 1 1 0 0 0 0 0 3 12 18 15 6 1 0 0
16 9 3 2 3 3 3 3 4 4 4 4 3 3 3 4 4 4 5 6 6 5 5 4 4 3 3 3 4 3 2 1 0 0 0 5 21 36 32 16 4 0 0
15 10 5 5 5 4 6 7 8 9 9 8 7 6 5 5 7 12 18 20 18 15 12 10 9 7 7 8 10 9 7 4 1 0 1 12 35 52 47 27 9 1 0
15 13 12 12 9 6 11 17 18 19 21 20 18 18 18 13 12 20 32 42 45 41 33 28 23 18 14 14 20 24 19 10 3 1 7 26 53 66 59 40 18 6 2
19 18 21 24 17 10 19 31 30 30 39 39 33 35 39 32 20 21 40 63 72 68 58 49 43 35 26 20 27 40 34 16 7 8 21 46 68 76 73 57 34 14 7
22 22 29 38 30 17 26 41 39 40 55 60 52 52 58 54 38 31 51 76 84 79 69 62 58 51 39 29 32 45 44 27 18 22 40 65 80 85 82 73 51 26 15
28 29 41 56 51 34 36 47 48 47 60 72 74 71 73 74 62 55 66 82 86 82 74 69 67 63 53 43 42 49 51 45 37 41 58 76 87 90 88 80 63 41 27
42 44 59 75 74 62 55 57 56 56 62 75 84 86 85 86 81 76 80 84 84 81 79 79 75 72 68 61 58 59 61 60 55 57 70 80 86 89 88 82 71 56 45
62 65 78 89 91 86 77 70 64 60 64 73 83 88 89 89 89 88 87 85 81 78 80 82 80 76 73 72 71 70 70 67 65 68 75 81 83 85 84 81 76 68 61
79 85 92 96 97 96 90 80 71 64 65 72 78 83 87 87 86 86 85 82 78 76 79 81 79 75 70 71 73 73 72 71 71 72 76 79 80 80 81 82 79 73 69
91 96 98 98 98 98 93 85 76 69 67 70 74 79 82 79 74 74 75 76 74 73 75 74 72 71 67 66 66 66 68 72 72 71 70 72 73 75 78 80 79 75 71
97 99 99 97 97 95 90 84 76 71 67 66 71 76 73 64 58 57 60 62 62 64 66 63 63 65 65 61 55 55 62 67 67 64 61 60 63 68 72 74 75 74 70
100 100 99 97 93 90 86 81 75 69 63 61 67 70 62 51 45 42 43 43 44 47 52 53 52 55 58 55 46 44 51 58 59 57 54 52 53 58 61 64 69 72 69
99 99 98 95 90 85 83 79 75 69 62 60 62 61 52 43 36 31 29 29 29 32 37 40 43 43 44 47 45 40 39 45 51 54 55 52 49 48 50 54 62 69 70
95 94 93 92 87 83 80 76 72 69 65 62 61 56 48 40 30 23 21 21 21 22 25 29 33 33 32 37 45 42 34 35 42 49 53 52 47 42 42 46 53 61 65
88 86 85 87 86 82 78 74 71 70 67 66 66 61 52 40 28 22 19 18 17 16 18 21 25 26 24 27 36 40 35 31 34 38 41 43 42 40 38 39 41 47 52
78 80 83 85 85 84 81 78 78 78 73 72 74 70 61 48 35 28 23 21 19 15 13 13 15 17 15 15 21 28 30 29 28 26 25 28 34 37 38 35 33 36 40
66 73 81 85 85 86 84 84 87 87 83 81 81 77 71 61 50 40 33 30 26 19 14 12 11 9 8 7 10 15 19 22 22 18 14 15 22 31 36 36 33 31 32
58 65 75 81 84 85 84 86 91 93 91 89 85 80 76 70 61 50 43 41 35 23 17 15 11 7 5 6 7 8 12 15 17 16 10 8 12 22 34 38 34 30 27

GEFSSE_con_probscp_072.txt.gz
Probability
0 0 0 0 0 0 0 0 0 0 0 0 0 0 0 0 0 0 0 0 0 0 0 0 0 0 0 0 0 0 0 0 0 0 0 0 0 0 0 0 0 0 0
0 0 0 0 0 0 0 0 0 0 0 0 0 0 0 0 0 0 0 0 0 0 0 0 0 0 0 0 0 0 0 0 0 0 0 0 0 0 0 0 0 0 0
0 0 0 0 0 0 0 0 0 0 0 0 0 0 0 0 0 0 0 0 0 0 0 0 0 0 0 0 0 0 0 0 0 0 0 0 0 0 0 0 0 0 0
0 0 0 0 0 0 0 0 0 0 0 0 0 0 0 0 0 0 0 0 0 0 0 0 0 0 0 0 0 0 0 0 0 0 0 0 0 0 0 0 0 0 0
0 0 1 2 1 1 0 0 0 0 0 0 0 0 0 0 0 0 0 0 0 0 0 0 0 0 0 0 0 0 0 0 0 0 0 0 0 0 0 0 0 0 0
0 0 2 5 4 2 1 0 0 0 0 0 0 0 0 0 0 0 0 0 0 0 0 0 0 0 0 0 0 0 0 0 0 0 0 0 0 0 0 0 0 0 0
1 1 4 8 7 3 1 0 0 0 0 0 0 0 0 0 0 0 0 0 0 0 0 0 0 0 0 0 0 0 0 0 0 0 0 0 0 0 0 1 1 1 0
2 3 5 8 7 4 1 1 1 1 1 1 0 0 0 0 0 0 0 0 0 0 0 0 0 0 0 0 0 0 0 0 0 0 0 0 0 0 1 2 2 2 1
2 4 6 5 4 3 2 2 2 2 2 1 0 0 0 0 0 0 0 0 0 0 0 0 0 0 0 0 0 0 0 0 0 0 0 0 0 0 1 3 4 3 1
2 4 5 4 2 1 2 2 2 2 2 1 0 0 0 0 0 0 0 0 0 1 1 1 0 0 0 0 0 0 0 0 0 0 0 0 1 1 4 7 9 6 3
2 2 3 4 3 2 1 1 1 1 1 0 0 0 0 0 0 0 0 1 2 4 6 6 4 3 3 3 1 1 1 1 0 0 0 0 2 3 8 17 20 15 10
9 6 3 3 4 3 2 1 0 0 0 0 0 0 0 0 0 0 1 2 4 8 13 14 13 14 14 12 8 6 7 5 2 1 1 1 3 7 16 30 36 31 25
25 16 6 3 4 4 3 2 1 0 0 0 1 1 1 1 1 1 2 3 5 10 16 20 23 26 27 25 19 14 12 9 6 4 2 2 5 12 26 42 51 48 42
42 32 18 10 7 6 6 7 6 4 3 3 4 5 6 6 5 4 4 4 6 10 15 20 24 26 28 27 22 15 12 10 9 6 3 4 9 17 31 48 59 58 53
59 51 38 28 22 19 19 22 20 17 14 14 15 15 16 15 13 10 8 10 12 13 15 17 18 18 19 18 15 11 10 10 10 7 3 5 12 21 31 46 60 62 58
73 68 59 52 48 45 44 44 40 37 34 31 29 29 28 27 23 19 17 19 20 18 17 16 15 14 13 13 11 10 10 11 9 5 3 5 13 20 27 42 56 59 57
74 74 73 71 70 69 67 63 58 53 49 44 39 38 40 38 31 27 25 24 24 22 20 18 16 14 12 11 9 8 9 8 5 2 1 4 10 15 21 33 45 49 49
67 70 75 76 75 75 74 70 65 58 52 47 43 42 44 41 35 31 27 25 23 22 19 16 13 12 9 6 4 3 4 4 2 0 0 3 7 12 16 23 30 35 38
59 62 68 70 69 69 67 65 61 55 48 44 42 40 39 38 34 31 26 22 20 18 15 13 10 8 5 3 1 0 1 1 0 0 0 2 5 9 15 17 20 25 28
47 51 56 60 61 61 59 57 54 49 43 37 34 33 32 31 30 27 22 17 14 13 12 9 7 5 4 2 1 0 0 0 0 0 0 1 2 6 12 15 17 20 21
37 40 44 48 51 52 51 49 47 41 33 27 25 25 24 24 23 18 14 11 10 10 9 6 4 4 3 2 1 0 0 0 0 0 0 0 1 3 7 11 14 15 15
32 32 33 34 36 39 39 40 40 35 28 23 21 20 19 19 17 12 7 7 8 8 5 2 1 1 1 1 1 0 0 0 0 0 0 0 0 1 3 5 7 8 9
25 24 23 21 21 23 25 28 32 31 28 25 22 18 16 15 15 10 6 6 7 6 3 1 0 0 0 0 0 0 0 0 0 0 0 0 0 0 1 1 2 3 3
13 13 13 11 11 12 15 19 23 26 26 23 21 19 14 12 12 10 7 7 6 3 1 0 0 0 0 0 0 0 0 0 0 0 0 0 0 0 0 0 0 0 0
4 4 4 4 5 7 9 13 17 19 19 20 22 21 17 12 11 11 10 8 6 3 1 0 0 0 0 0 0 0 0 0 0 0 0 0 0 0 0 0 0 0 0
1 0 0 1 3 6 7 10 13 14 14 19 24 23 19 14 12 11 10 8 6 4 2 0 0 0 0 0 0 0 0 0 0 0 0 0 0 0 0 0 0 0 0

GEFSSE_con_probscp_078.txt.gz
Probability
0 0 0 0 0 0 0 0 0 0 0 0 0 0 0 0 0 0 0 0 0 0 0 0 0 0 0 0 0 0 0 0 0 0 0 0 0 0 0 0 0 0 0
0 0 0 0 0 0 0 0 0 0 0 0 0 0 0 0 0 0 0 0 0 0 0 0 0 0 0 0 0 0 0 0 0 0 0 0 0 0 0 0 0 0 0
0 0 0 0 0 0 0 0 0 0 0 0 0 0 0 0 0 0 0 0 0 0 0 0 0 0 0 0 0 0 0 0 0 0 0 0 0 0 0 0 0 0 0
0 0 1 2 3 2 0 0 0 0 0 0 0 0 0 0 0 0 0 0 0 0 0 0 0 0 0 0 0 0 0 0 0 0 0 0 0 0 0 0 0 0 0
1 0 3 8 9 6 3 1 0 0 0 0 0 0 0 0 0 0 0 0 0 0 0 0 0 0 0 0 0 0 0 0 0 0 0 0 0 0 0 0 0 0 0
1 1 8 18 19 13 7 3 1 1 1 1 0 0 0 0 0 0 0 0 0 0 0 0 0 0 0 0 0 0 0 0 0 0 0 0 0 0 0 0 0 0 0
2 4 13 28 30 22 15 9 5 3 2 2 1 0 0 0 0 0 0 0 0 0 0 0 0 0 0 0 0 0 0 0 0 0 0 0 0 0 0 0 0 0 0
5 8 17 31 37 32 24 17 10 6 4 2 1 0 0 0 0 0 0 0 0 0 0 0 0 0 0 0 0 0 0 0 0 0 0 0 0 0 0 0 0 0 0
8 13 22 31 38 36 29 21 15 9 5 2 0 0 0 0 0 0 0 0 0 0 0 0 0 0 0 0 0 0 0 0 0 0 0 0 0 0 0 0 0 0 0
11 18 28 36 40 37 30 24 19 14 8 3 0 0 0 0 0 0 0 0 0 0 0 0 0 0 0 0 0 0 0 0 0 0 0 0 0 0 0 0 0 0 0
15 22 33 42 44 41 35 29 24 19 12 6 2 0 0 0 0 0 0 0 0 0 0 0 0 0 0 1 1 0 0 0 0 0 0 0 0 0 0 1 1 1 1
20 24 33 42 47 46 41 35 29 24 18 11 5 2 1 0 0 0 0 0 0 0 0 0 0 0 3 6 6 5 4 2 1 0 0 0 0 0 1 2 2 2 2
23 25 31 40 45 47 45 40 35 29 22 15 10 6 4 2 1 0 0 0 0 0 0 0 0 1 5 11 12 9 8 6 4 3 1 1 1 1 1 1 2 2 2
28 29 33 38 41 44 44 41 37 32 25 19 15 11 8 7 5 3 1 0 0 0 0 1 1 2 4 7 9 7 6 7 6 4 3 2 2 3 3 1 1 1 1
41 40 40 42 42 42 41 38 36 33 26 21 18 16 14 13 10 6 3 1 0 1 1 2 2 2 2 2 3 3 2 3 4 3 2 2 4 7 6 4 3 2 1
48 46 46 47 45 43 38 34 33 31 25 21 19 18 19 17 13 9 5 1 1 2 4 4 4 3 2 2 2 2 1 1 2 2 1 1 3 6 7 6 6 5 3
42 42 44 44 42 40 36 33 31 27 21 19 17 17 19 19 16 13 8 3 3 5 8 9 8 7 5 4 2 3 2 2 2 3 2 1 1 3 5 6 6 7 7
32 33 36 38 36 34 32 30 27 23 21 20 18 17 18 20 20 17 12 7 6 8 10 11 10 9 8 5 3 3 3 1 1 2 1 1 1 2 3 4 4 8 12
25 25 29 32 32 29 27 27 25 22 22 24 20 16 16 18 19 18 14 11 9 9 9 10 9 7 6 5 3 3 2 1 0 0 0 0 1 2 3 3 4 7 11
19 19 21 24 25 24 24 25 24 20 21 23 19 14 13 14 16 16 13 10 9 9 8 8 7 5 3 3 2 2 1 0 0 0 0 0 0 1 2 2 4 5 5
13 14 15 16 17 19 21 21 18 15 16 17 14 11 10 13 15 15 11 7 7 8 8 6 5 4 3 1 1 1 0 0 0 0 0 0 0 1 1 1 3 3 2
9 9 9 9 9 11 14 13 10 9 10 11 9 8 8 10 12 12 9 5 4 4 4 3 3 3 2 1 0 0 0 0 0 0 0 0 0 0 0 0 1 1 1
7 6 5 4 4 5 5 5 4 5 6 7 5 4 5 7 9 9 7 4 2 1 1 1 1 1 1 0 0 0 0 0 0 0 0 0 0 0 0 0 0 0 0
4 4 3 1 0 1 1 1 2 3 4 5 3 2 3 4 6 6 4 2 1 0 0 0 0 0 0 0 0 0 0 0 0 0 0 0 0 0 0 0 0 0 0
2 2 1 0 0 0 0 0 1 1 1 2 1 1 1 2 3 2 2 1 0 0 0 0 0 0 0 0 0 0 0 0 0 0 0 0 0 0 0 0 0 0 0
1 1 0 0 0 0 0 0 0 0 0 1 0 0 0 0 1 1 1 0 0 0 0 0 0 0 0 0 0 0 0 0 0 0 0 0 0 0 0 0 0 0 0